Regional Weather Roundup
Issued by NWS Goodland, KS

Home | Current Version | Previous Version | Text Only | Print | Product List | Glossary Off
Versions: 1 2 3 4 5 6 7 8 9 10 11 12 13 14 15 16 17 18 19 20 21 22 23 24 25 26 27 28 29 30 31 32 33 34 35 36 37 38 39 40 41 42 43 44 45 46 47 48 49 50

000
ASUS43 KGLD 230108
RWRGLD

GOODLAND FORECAST AREA HOURLY WEATHER ROUNDUP
NATIONAL WEATHER SERVICE GOODLAND KS
700 PM MDT WED OCT 22 2014

...OFFICIAL OBSERVATIONS...

CITY           SKY/WX    TMP DP  RH WIND       PRES   REMARKS
GOODLAND KS    CLEAR     56  46  69 SE6       30.07R
HILL CITY KS   MOCLDY    65  58  78 CALM      30.03S
IMPERIAL NEB   CLEAR     59  34  39 NW5       30.06R
MCCOOK NEB     CLEAR     59  50  72 E6        30.03R
AKRON CO       PTCLDY    51  37  58 E8        30.10R
BURLINGTON CO  PTCLDY    59  40  49 NE8       30.08R
LIMON CO       PTCLDY    50  45  83 CALM      30.13R
$$

...UNOFFICIAL OBSERVATIONS...

CITY           SKY/WX    TMP DP  RH WIND       PRES   REMARKS
COLBY KS       CLEAR     57  50  77 NE6       30.07R
GOVE KS          N/A     66  32  28 MISG        N/A
NORTON KS      CLEAR     55  48  76 CALM      30.02R
SHARON SPRINGS   N/A     60  48  64 CALM        N/A
TRENTON NEB      N/A     59  32  36 CALM        N/A
KIT CARSON CO    N/A     61  43  51 CALM        N/A
YUMA CO          N/A     55  35  47 E6          N/A
$$



USA.gov is the U.S. government's official web portal to all federal, state and local government web resources and services.